Theta_e
299 294 293 292 294 294 294 295 297 294 295 293 292 292 292 292 293 293 293 296 296 299 299 303 305 305 306 307 310 312 315 314 313 314 315 316 319 324 327 328 328 329 330 328 330 330 332 333 333 333 333 331 329 329 329 329 330 330 330 330 329 332 335 335 334 334 334 333 333 334 334 334 336 335 335 335 337 338 337 340 341 340 340 338 337 337
298 294 293 294 295 294 295 295 296 292 294 294 292 292 290 291 292 294 295 295 296 298 298 303 303 303 305 308 310 313 313 311 312 312 314 315 317 318 319 322 326 329 329 329 328 329 330 331 332 332 331 329 326 328 330 331 331 330 330 329 329 332 334 334 334 334 334 335 333 332 332 333 332 331 333 333 335 337 338 339 339 340 340 339 338 338
294 293 295 295 294 294 293 294 295 295 292 292 293 292 291 292 292 294 294 296 296 299 298 303 301 301 304 309 311 311 311 312 313 314 314 315 316 317 318 320 321 322 323 324 325 327 327 328 330 329 328 328 328 330 330 330 332 331 329 330 331 334 335 336 336 336 335 335 335 334 334 332 331 333 334 334 335 338 338 338 338 339 340 339 338 339
290 293 296 295 294 294 291 292 294 294 295 293 292 291 291 291 291 291 295 295 295 297 298 303 301 302 306 309 311 312 312 313 314 315 315 316 316 316 317 318 319 320 321 321 323 325 326 327 328 328 328 329 331 331 330 330 330 331 332 332 333 335 336 336 337 337 339 339 337 336 335 334 333 331 334 335 335 336 337 337 336 338 339 338 337 337
293 296 298 293 294 295 292 292 293 293 291 292 293 292 291 290 292 294 294 294 296 299 304 303 301 301 302 303 306 311 314 313 313 314 315 316 317 317 317 316 316 316 317 319 321 324 325 326 326 327 329 331 331 332 332 331 332 332 332 334 336 336 337 337 337 336 338 338 337 336 335 333 330 332 335 333 331 333 335 336 335 336 338 338 337 336
293 295 295 293 292 293 293 290 293 294 291 291 293 293 293 293 293 292 293 294 294 295 297 292 291 294 299 302 304 308 310 310 312 312 312 313 314 314 313 312 314 314 315 315 316 318 321 324 326 326 327 327 329 331 333 333 335 335 335 335 336 337 337 336 338 338 338 336 334 333 331 327 327 327 330 328 330 331 332 333 337 338 337 337 337 336
295 295 295 293 292 292 293 292 292 295 292 290 291 293 293 293 293 293 292 293 290 289 294 293 290 290 298 299 303 306 308 308 311 310 311 311 311 310 310 311 311 311 312 313 314 315 316 319 320 321 322 323 324 326 329 330 333 334 335 335 335 336 336 336 337 338 337 337 335 333 331 331 330 329 330 335 336 335 335 336 336 336 338 337 336 334
294 293 293 294 293 292 291 291 291 293 291 289 293 293 293 293 292 293 293 293 293 294 293 292 296 294 292 297 302 305 306 306 307 308 309 309 309 308 308 309 309 309 310 309 310 311 312 314 315 316 318 320 322 325 326 327 328 329 330 332 333 333 333 335 337 337 337 335 335 333 332 330 331 331 332 332 332 334 336 336 335 336 336 336 336 335
297 292 293 291 292 292 292 294 292 293 292 292 292 293 292 294 294 294 293 293 293 292 289 292 294 294 292 297 303 305 302 304 305 306 307 307 307 307 307 307 307 308 308 308 308 308 309 310 312 313 314 316 317 319 322 324 326 328 329 330 331 332 333 334 336 336 337 336 335 333 331 330 333 334 332 333 333 333 335 335 336 335 335 335 337 337
295 296 296 295 293 291 294 294 293 293 291 291 292 294 294 293 293 293 293 293 292 290 287 291 292 291 291 296 299 303 303 302 304 305 306 307 307 306 306 306 306 307 307 308 308 308 308 309 310 312 314 314 315 317 319 320 322 323 326 327 328 329 331 332 331 334 334 335 335 333 332 332 332 331 331 332 332 332 334 333 334 334 334 333 335 335
295 301 300 296 294 296 295 294 294 294 294 294 294 293 293 293 293 293 294 293 292 285 289 288 289 293 288 295 298 299 300 304 305 306 307 306 305 305 305 305 305 305 305 305 307 307 308 309 310 311 311 311 313 315 316 318 319 320 321 322 324 327 329 330 329 329 330 332 333 334 334 333 333 334 332 331 330 331 332 331 332 333 332 333 333 333
295 296 295 297 300 295 296 292 294 295 294 295 293 292 292 291 293 293 292 293 285 284 289 291 290 291 287 291 300 304 308 307 306 303 303 303 303 302 303 303 304 304 304 305 305 306 306 307 308 309 309 310 311 312 313 314 316 317 318 320 321 325 327 329 330 330 331 335 333 330 331 332 333 333 331 330 330 330 330 331 331 332 333 333 333 334
292 293 295 295 301 297 293 292 291 293 293 294 294 292 287 285 286 283 287 282 284 284 289 290 290 293 293 297 301 305 305 305 306 305 303 302 301 301 302 302 303 303 304 304 304 305 305 305 306 307 308 309 308 309 310 311 313 315 316 317 318 320 323 326 329 330 328 329 329 329 329 330 331 331 332 332 331 332 330 330 330 331 331 332 331 331
291 294 292 294 294 299 296 290 288 288 291 291 291 290 286 282 281 277 282 284 286 287 288 291 292 294 297 300 305 304 306 306 306 305 304 303 301 301 301 302 302 303 303 303 304 304 305 305 305 306 307 307 307 308 309 310 311 312 313 314 314 316 319 322 325 328 328 329 329 329 328 329 329 328 329 329 329 330 330 330 331 331 331 330 331 329
284 285 291 292 290 296 296 295 293 292 291 292 294 292 291 288 283 277 281 279 282 285 289 293 290 290 292 293 306 305 305 305 305 305 305 304 303 303 303 302 302 302 302 303 303 303 304 304 305 305 306 306 306 306 307 308 309 310 310 311 311 313 314 317 318 322 325 328 329 329 329 328 328 328 327 328 329 329 329 330 329 331 332 331 332 331
288 288 293 295 294 296 294 296 296 294 292 292 291 293 290 289 294 285 285 288 285 286 286 289 288 296 296 303 305 305 305 304 304 303 303 302 302 302 301 301 301 301 302 302 302 303 303 304 304 304 304 305 305 306 306 306 307 308 308 309 311 312 313 315 316 316 319 322 326 327 327 327 328 328 327 327 328 329 329 329 330 329 331 331 333 332
287 287 292 293 293 295 296 295 295 297 286 291 291 289 292 296 293 283 283 285 285 287 284 287 291 296 301 303 303 302 302 301 302 302 302 301 302 301 299 300 300 301 301 302 302 302 302 303 303 304 304 304 304 305 305 305 306 306 306 307 308 308 309 311 312 314 316 318 321 326 328 328 327 328 327 326 328 329 330 330 329 329 330 330 330 330
288 288 293 292 291 295 294 297 296 294 297 292 288 292 293 295 296 292 284 283 284 282 282 289 288 290 293 288 302 300 299 300 300 300 301 301 301 299 299 299 300 300 301 302 302 302 302 302 302 303 303 304 304 304 305 305 306 306 306 306 306 306 307 308 309 311 314 315 316 319 325 328 329 329 329 330 330 330 329 330 330 329 328 328 330 330
293 287 291 292 293 296 298 297 294 295 296 295 294 297 292 286 286 288 287 278 279 280 282 287 291 292 293 292 298 297 297 297 298 299 299 299 299 298 298 299 299 300 300 300 301 301 300 300 300 301 302 303 304 305 305 306 306 307 307 307 307 306 307 307 308 310 312 313 314 316 319 324 328 329 329 330 330 331 329 329 329 328 328 328 329 330
294 288 288 293 294 295 298 296 287 292 295 294 296 293 295 296 293 287 288 290 288 280 282 283 288 285 295 297 300 299 299 298 297 297 297 298 298 298 298 298 298 298 298 299 299 299 299 299 300 300 301 302 303 303 304 306 307 306 307 307 307 308 308 308 308 309 309 311 312 313 317 320 324 329 329 329 329 329 328 328 328 328 328 329 329 328
291 294 286 293 295 294 290 296 291 292 290 291 293 292 293 293 293 294 291 288 287 282 284 284 281 288 296 300 301 300 299 298 298 296 297 297 298 298 298 298 298 298 298 298 298 298 298 298 299 300 301 302 303 304 304 305 305 305 306 307 307 307 308 308 309 309 311 311 311 313 314 316 320 326 330 330 330 329 328 328 328 328 329 330 329 328
291 292 289 293 293 294 294 296 296 295 293 294 293 292 293 289 288 286 283 289 289 289 283 283 282 291 296 301 303 300 299 298 298 297 296 297 297 298 298 298 297 297 297 298 298 298 298 298 299 300 301 302 302 302 303 303 304 304 305 305 306 307 307 307 308 309 310 311 312 312 313 315 317 319 324 329 330 328 327 328 328 328 329 329 330 329
297 294 295 290 292 294 295 298 298 298 296 295 297 293 293 294 294 290 283 286 288 289 291 291 287 287 296 300 301 299 299 298 298 298 296 297 297 297 297 297 296 296 296 297 298 298 298 299 299 300 300 301 301 302 302 303 303 303 304 305 305 306 307 308 308 309 310 310 311 311 312 314 314 316 318 321 326 328 328 328 329 329 328 328 328 329
306 295 291 291 293 295 296 295 297 298 298 297 295 296 294 293 294 294 294 293 288 288 288 287 286 288 295 299 298 299 298 298 298 298 296 296 297 296 295 295 295 296 296 297 298 298 299 299 300 299 299 300 300 301 301 302 302 303 304 305 306 305 306 307 308 308 309 309 310 311 311 311 312 314 315 317 320 324 328 329 328 328 328 328 329 330
292 290 293 288 288 290 293 294 295 298 298 295 294 294 293 292 291 293 293 294 289 289 289 287 282 287 293 298 298 297 296 296 296 296 297 295 295 295 295 295 295 295 296 296 297 297 298 298 298 298 299 299 300 300 301 301 302 302 303 304 304 305 306 306 307 307 308 309 309 309 309 310 311 311 312 313 317 320 324 327 328 328 327 327 328 329
293 289 291 286 283 281 280 282 285 289 293 294 293 293 293 292 293 295 289 290 286 287 287 288 286 289 293 296 295 295 294 294 295 294 295 295 294 293 294 294 295 295 295 296 297 297 297 298 298 298 299 299 300 300 300 301 302 302 303 304 305 305 305 306 307 307 307 308 308 308 308 309 310 311 311 312 314 317 321 324 326 327 327 327 327 328
291 292 289 289 289 288 288 289 290 292 293 292 290 292 291 290 289 292 294 289 287 287 288 290 290 287 289 291 292 293 293 292 292 293 293 292 293 293 293 294 294 295 295 296 296 297 297 298 298 298 299 299 300 300 301 301 301 302 302 303 304 305 305 305 306 307 307 307 308 307 307 308 308 310 311 311 312 315 319 321 325 326 326 327 327 327
294 290 291 289 288 288 290 290 293 294 290 289 291 291 292 291 292 295 290 289 294 289 286 291 292 288 288 291 292 292 292 292 292 292 292 292 292 292 293 293 294 294 295 296 296 296 296 297 298 298 299 299 300 300 301 301 301 302 302 302 303 304 305 305 306 306 306 306 306 306 306 307 308 309 310 311 312 314 317 320 323 325 326 327 326 326
294 289 290 291 288 291 291 292 293 292 291 291 291 292 291 293 295 292 286 289 293 290 288 291 292 289 289 291 292 292 292 291 290 291 292 292 292 292 293 292 292 293 294 295 295 296 296 296 297 298 298 299 299 299 300 300 301 301 302 302 303 303 304 305 306 306 306 305 305 305 306 306 307 308 309 309 310 311 312 315 320 323 325 325 326 327
294 288 290 292 289 290 291 292 293 291 290 290 290 290 292 291 290 291 291 293 294 292 294 292 291 288 290 290 290 291 292 291 291 291 291 291 291 291 291 292 292 292 293 293 294 295 296 296 297 297 298 298 298 299 299 300 300 300 301 301 302 302 303 304 305 305 305 304 304 305 306 306 306 307 308 308 309 309 310 311 315 320 323 324 325 326
296 287 292 292 288 287 290 292 292 292 290 288 289 290 291 291 292 292 292 292 293 292 292 289 286 285 289 291 290 291 291 291 290 289 289 290 290 291 290 290 291 291 292 293 294 295 296 296 297 297 297 298 298 299 299 299 300 301 300 301 301 301 303 304 303 304 304 304 305 305 305 305 305 306 306 307 308 308 308 309 313 317 321 323 324 325
297 290 294 291 287 286 290 291 290 291 290 288 286 288 289 289 288 289 289 291 290 286 287 287 284 283 287 290 290 290 290 289 288 289 289 289 290 290 290 290 291 292 292 293 294 294 295 296 296 297 297 298 299 299 299 299 300 300 299 300 300 301 302 303 303 303 304 304 305 305 304 304 304 304 304 305 305 305 306 307 309 314 319 322 323 324
295 292 289 289 286 284 289 290 289 290 291 286 285 287 289 290 290 291 291 292 292 292 287 286 285 287 288 289 287 287 288 288 288 289 289 290 291 291 291 291 292 292 293 293 294 294 295 295 296 297 298 298 298 299 299 300 300 299 300 299 300 301 301 301 302 302 303 303 304 304 304 304 303 303 304 304 304 304 304 304 305 305 309 316 323 324
295 294 289 292 286 285 289 290 290 287 282 281 289 291 291 288 290 288 286 289 291 294 291 293 290 289 289 288 287 286 287 287 288 290 292 291 291 291 292 292 292 293 293 294 295 295 295 296 297 297 298 299 299 300 300 301 300 300 301 301 300 299 300 300 301 302 302 303 303 304 304 304 303 303 303 303 304 303 302 302 302 303 304 306 312 321
292 291 288 291 287 284 288 289 285 280 279 287 292 293 293 292 291 288 288 289 290 291 291 289 288 288 289 289 288 288 289 290 291 291 291 292 293 292 292 292 293 293 294 295 295 295 296 296 297 298 298 298 299 300 300 300 300 301 301 300 300 299 299 299 300 301 301 302 302 303 303 303 303 303 302 303 303 302 301 300 301 301 301 303 302 301
290 290 288 288 289 288 287 286 280 278 285 289 290 292 294 293 292 291 287 288 289 290 290 287 288 288 288 288 289 290 290 290 291 292 292 293 294 293 292 292 293 294 294 295 296 296 296 297 297 298 298 299 299 299 299 299 300 300 300 301 300 299 299 299 299 300 300 301 301 302 303 303 303 303 303 302 302 301 301 300 300 299 300 300 300 301
294 292 291 286 289 284 284 282 279 284 285 287 286 289 292 290 290 289 283 285 289 290 289 287 287 287 288 288 289 289 290 290 288 289 293 293 293 294 294 294 295 295 296 297 297 297 298 299 298 298 299 299 300 299 299 300 300 300 300 300 300 299 298 298 298 299 299 300 301 301 302 303 303 303 303 302 301 301 300 300 300 300 300 299 299 299
294 293 292 289 283 287 283 279 280 280 279 283 289 294 296 295 295 294 290 284 291 290 291 289 286 286 287 288 288 289 290 287 284 285 291 293 295 294 296 296 296 296 297 297 298 298 298 298 299 299 299 299 299 299 300 301 300 300 299 299 299 298 298 297 297 298 299 299 300 301 302 302 303 303 303 302 301 301 301 302 301 301 300 299 298 297
293 294 293 290 284 285 284 281 279 278 280 287 290 293 294 295 296 295 290 283 290 290 291 289 287 288 287 287 288 290 288 285 283 286 292 294 295 295 295 295 296 296 296 297 297 297 297 298 299 299 299 299 298 299 300 300 300 299 298 298 298 298 297 297 297 297 298 298 300 301 301 302 303 303 302 302 302 302 302 301 301 302 301 300 299 298
289 287 290 287 284 283 283 281 279 281 281 287 291 292 293 295 295 293 281 283 290 291 291 290 288 288 288 289 290 290 289 286 284 288 293 294 295 295 296 295 295 296 296 297 298 298 298 299 298 298 297 297 298 300 300 300 299 299 298 298 298 297 297 297 297 298 299 299 300 301 301 302 302 302 302 302 302 302 302 303 302 302 301 300 300 299
284 283 284 284 284 282 281 279 281 282 286 291 291 293 294 295 292 283 280 286 291 292 291 291 290 290 290 290 291 287 287 291 291 293 295 295 295 295 296 297 297 297 297 297 297 298 298 298 298 297 297 298 298 300 300 300 299 298 298 298 297 297 297 298 298 298 299 299 299 300 300 301 301 302 303 303 302 302 302 302 302 302 301 301 300 300
283 282 281 283 283 283 283 282 281 283 288 292 292 293 295 291 282 283 289 293 294 293 292 292 291 291 292 291 290 289 291 293 294 295 295 295 295 295 296 296 297 298 298 298 298 297 297 297 299 298 298 298 298 299 300 300 298 298 298 298 297 297 299 299 299 299 299 299 299 299 300 300 301 302 302 302 303 302 301 301 302 302 301 301 300 299
284 283 281 281 279 280 280 281 279 277 285 291 292 291 293 287 288 291 291 294 296 294 293 292 292 292 293 290 291 291 292 292 293 294 294 295 295 295 295 295 296 296 297 297 295 295 296 297 297 297 297 298 298 299 299 300 298 298 298 297 298 299 299 299 299 299 298 298 298 299 299 299 300 301 301 301 302 302 301 301 300 300 300 299 299 299
286 281 278 278 281 282 279 279 279 284 287 291 291 288 291 292 293 294 294 291 295 294 293 292 293 293 292 291 290 291 292 292 293 293 294 294 295 296 297 298 298 297 297 296 295 295 296 297 297 297 297 297 298 298 299 299 298 298 298 297 299 299 300 300 299 299 298 298 298 298 298 299 299 300 301 301 301 301 301 301 300 300 299 299 298 297
287 285 286 283 283 281 281 282 285 288 290 292 291 290 291 293 295 295 296 294 293 293 295 293 292 293 293 292 292 292 292 293 293 295 294 295 295 296 296 296 296 295 295 295 294 295 296 296 297 297 296 297 297 298 298 299 299 298 298 299 300 299 299 299 299 299 298 298 297 298 298 299 299 299 299 301 300 299 299 300 300 299 299 299 297 296
289 290 290 287 283 287 288 289 290 289 290 290 292 292 291 292 294 295 295 293 294 295 295 293 293 293 293 294 293 292 292 293 294 294 295 295 296 296 298 297 296 296 295 294 294 294 295 297 297 296 296 296 297 298 298 299 299 298 298 300 300 299 299 299 299 298 298 297 297 297 298 298 298 298 298 299 300 300 299 299 299 298 299 299 297 297
290 291 289 286 287 285 280 288 287 287 289 290 290 292 293 293 293 294 294 294 294 294 294 294 294 294 294 294 293 293 293 294 294 295 295 295 296 296 296 295 295 295 294 293 293 294 295 295 295 295 296 296 296 297 298 299 299 299 300 300 300 300 300 299 298 298 297 297 297 298 298 297 297 297 298 298 298 298 299 298 298 298 297 297 297 297
286 292 287 286 285 284 283 286 288 290 290 291 291 290 290 291 292 293 294 295 295 295 295 295 295 294 295 294 295 294 294 295 294 294 295 295 296 295 295 295 295 294 294 294 293 294 295 294 294 295 295 295 296 297 298 298 298 298 299 299 299 299 300 299 298 298 297 297 297 297 297 297 291 294 297 297 296 296 296 297 297 296 294 294 293 295
289 292 284 287 284 285 287 288 288 289 289 289 291 291 292 292 292 293 294 294 295 294 294 295 296 295 295 295 296 295 294 295 295 295 295 295 296 295 295 294 295 294 294 293 293 293 293 294 294 295 295 295 296 297 298 297 298 298 299 299 299 298 299 298 298 299 298 297 297 297 297 297 297 297 297 297 297 296 295 294 296 296 297 295 294 292
289 286 289 287 282 281 283 285 289 285 283 287 289 291 292 293 293 293 293 293 294 293 294 293 294 295 295 296 296 296 294 294 294 295 295 295 295 295 295 295 295 294 293 293 294 294 294 294 295 295 296 296 296 297 297 297 297 298 298 299 299 297 298 298 298 298 298 297 297 297 297 298 297 297 296 297 297 297 296 288 289 291 294 294 290 288
288 288 288 285 284 284 288 290 292 292 290 290 291 292 293 294 294 293 292 292 293 294 294 294 293 294 294 294 296 296 295 295 295 295 295 294 294 294 294 294 294 293 292 293 293 294 294 294 295 295 295 295 295 296 297 297 297 297 297 298 299 297 297 298 297 297 297 297 296 293 296 297 298 297 297 297 297 297 297 298 295 288 288 289 289 289
Wind_Speed
3 8 9 8 6 6 5 7 7 4 4 6 4 4 4 4 2 2 3 1 4 11 8 9 11 11 11 11 10 8 9 14 13 12 9 9 7 2 3 5 5 6 4 7 6 6 5 4 4 5 7 8 11 8 8 6 6 8 8 7 4 1 1 3 4 4 6 6 4 4 5 7 4 4 5 4 5 5 6 7 8 7 6 6 8 9
5 7 7 5 6 9 8 5 8 8 4 8 6 5 4 2 5 2 2 4 3 3 2 5 14 12 11 10 10 10 14 16 13 12 12 12 10 8 10 10 7 4 4 7 7 6 6 6 6 6 6 7 7 5 7 6 7 8 10 12 11 9 8 8 8 7 7 7 7 6 6 5 3 2 3 5 5 7 5 5 7 8 8 9 9 9
8 9 6 7 4 7 7 5 4 9 6 3 4 3 3 3 2 2 0 3 2 7 5 5 14 9 10 10 11 14 14 12 12 12 12 13 13 13 12 11 11 11 9 9 8 7 7 7 6 6 7 6 4 3 7 7 5 3 2 2 2 5 5 5 5 5 6 6 7 8 7 7 4 4 6 7 6 8 8 6 7 10 9 10 10 10
8 6 8 6 8 9 4 5 8 7 4 4 4 4 4 3 4 5 3 2 5 0 9 8 15 8 8 8 13 13 12 11 13 15 15 15 15 15 14 12 12 13 11 10 9 8 8 7 8 6 4 3 1 1 3 5 4 1 3 3 4 5 5 6 8 8 8 7 6 4 4 6 6 6 7 8 9 10 12 11 9 9 9 10 10 9
5 7 7 10 8 10 9 6 10 7 5 1 5 4 2 3 1 0 4 2 2 8 7 12 9 6 9 8 9 10 11 12 13 16 16 14 14 13 13 15 15 14 14 13 12 10 8 8 7 9 8 6 5 4 2 1 4 4 5 4 4 3 4 5 7 9 9 7 6 6 5 6 7 6 7 8 8 11 10 9 10 11 12 12 10 6
4 2 8 10 6 6 10 7 7 9 6 4 4 7 7 5 4 1 2 5 4 4 5 3 4 3 5 7 9 7 9 12 13 15 15 14 14 14 14 14 14 13 13 14 13 13 13 11 10 10 8 8 7 6 3 2 3 4 4 5 5 3 3 4 6 7 7 8 7 6 6 7 5 5 7 9 9 10 10 10 7 11 12 12 8 6
4 4 10 11 10 6 8 7 7 8 6 6 6 7 5 5 2 3 2 2 4 5 4 2 4 3 2 6 7 8 9 11 12 16 14 13 12 12 12 13 13 13 13 14 15 15 15 14 13 13 12 11 10 10 8 7 8 7 5 5 5 5 5 5 5 5 5 6 6 8 9 9 8 8 9 8 8 10 10 8 10 11 11 11 7 6
6 7 4 4 8 8 6 7 5 8 6 7 1 10 6 6 7 5 2 3 0 3 4 1 1 5 5 3 5 4 8 10 13 14 13 12 12 13 13 14 13 13 13 12 13 15 14 14 13 12 12 11 12 11 11 10 8 8 8 8 8 6 5 6 7 7 5 5 5 6 7 6 8 10 10 9 9 10 9 10 11 10 9 9 9 10
9 8 8 9 7 7 9 6 8 9 7 3 5 10 11 11 9 6 4 2 1 2 3 3 2 4 2 2 2 2 6 10 12 12 12 12 12 12 13 13 13 13 13 14 13 13 14 13 14 12 12 11 12 12 11 11 11 10 10 10 10 8 6 5 5 6 6 7 8 8 7 8 7 7 8 7 8 9 9 11 9 10 8 8 10 10
3 11 14 11 10 8 5 6 12 10 8 2 7 5 5 6 5 3 4 4 2 2 3 6 2 3 3 1 0 2 5 8 9 10 10 11 12 12 12 13 13 12 12 12 12 12 12 12 12 11 10 13 11 9 11 11 11 11 11 12 11 10 8 7 7 5 5 8 8 9 10 11 9 7 7 7 8 9 10 12 11 8 8 7 8 9
2 4 2 5 8 7 8 3 11 13 3 11 10 9 5 4 3 3 3 0 2 3 2 2 3 3 4 3 1 2 2 4 6 6 8 11 12 12 12 13 13 12 12 12 13 13 13 10 10 11 12 12 12 11 13 11 12 12 12 13 13 11 9 9 7 3 1 4 9 8 8 9 10 10 10 9 9 9 9 10 11 8 9 7 8 8
1 4 6 3 2 4 6 7 3 4 7 11 4 6 8 4 2 3 1 0 4 4 3 1 3 3 4 3 3 3 7 8 7 8 11 11 11 11 11 11 12 13 12 12 12 13 14 14 15 14 16 15 14 13 14 13 12 12 11 12 13 13 12 10 7 6 5 5 2 3 6 9 10 10 8 10 10 10 10 10 10 8 8 7 7 8
4 6 1 1 3 6 5 8 4 4 4 2 7 10 11 6 3 4 4 5 7 4 2 1 4 5 6 4 8 9 9 9 9 8 9 10 9 10 11 13 12 12 13 13 13 13 12 11 12 14 14 14 14 13 14 13 12 12 12 14 13 13 13 11 10 9 9 9 10 8 8 9 9 10 10 11 10 8 8 9 10 9 8 7 9 9
4 2 2 3 1 3 10 8 7 7 5 4 11 10 11 9 7 4 3 2 1 0 0 2 4 5 8 7 8 9 9 10 11 10 10 10 10 11 11 11 11 12 12 11 12 12 12 12 13 14 13 13 12 13 13 12 12 11 11 13 14 14 14 13 13 12 10 9 10 10 9 8 8 9 9 9 9 9 8 7 8 8 9 10 10 10
7 8 9 9 6 5 8 6 10 6 8 7 2 8 3 3 5 6 5 5 5 4 2 2 2 5 9 3 10 11 10 11 10 10 10 10 10 11 11 11 12 12 11 9 9 10 10 11 12 11 11 11 11 13 12 12 12 12 12 12 13 13 13 13 13 11 12 10 11 9 9 8 7 8 7 7 7 8 9 7 9 7 8 9 8 9
8 2 0 6 2 9 10 5 6 10 9 2 2 3 5 8 2 4 1 1 4 4 2 5 2 3 3 4 9 10 11 11 10 10 10 11 10 10 11 12 12 11 10 9 10 10 11 10 10 10 10 10 11 12 11 13 12 12 13 13 13 13 12 12 12 12 11 11 11 11 9 9 8 6 7 7 6 7 7 8 7 8 8 8 7 6
2 6 2 1 2 9 7 9 5 10 8 7 5 8 3 4 9 5 2 3 3 2 2 1 2 4 4 6 9 10 11 9 8 9 9 10 10 11 12 11 11 10 9 9 10 10 11 11 11 10 10 11 12 12 12 12 12 12 13 13 15 15 14 13 13 11 11 11 12 12 11 9 9 9 9 8 9 10 8 8 8 9 8 5 7 9
6 4 2 5 4 2 2 3 6 4 3 9 7 7 4 1 3 3 4 0 0 3 2 0 4 6 8 5 8 8 9 7 7 9 10 10 11 12 11 11 11 10 10 10 11 11 11 11 12 12 11 12 12 12 13 13 12 11 11 12 12 12 13 13 13 12 11 11 10 10 12 10 9 8 8 8 10 8 8 8 8 8 7 8 9 8
2 4 2 3 2 3 1 9 6 4 5 7 7 10 6 3 6 2 3 2 4 2 3 2 4 6 7 3 6 8 7 6 7 8 10 11 11 11 11 12 11 11 11 11 11 11 11 11 12 12 12 12 12 12 12 12 12 13 12 12 12 13 12 11 10 9 8 8 8 8 10 12 10 8 8 8 9 8 8 10 10 10 9 9 9 9
2 2 0 1 2 2 2 3 6 5 4 5 7 6 3 1 4 7 0 3 4 4 4 3 6 4 7 1 6 8 9 8 8 9 10 10 10 10 10 10 11 11 11 10 10 10 11 11 12 12 12 12 12 12 11 12 13 14 13 14 14 13 12 12 12 11 11 10 9 10 10 10 11 10 8 8 9 8 9 10 10 10 11 10 9 9
1 2 3 2 1 2 7 3 5 7 8 4 6 4 3 3 2 3 3 1 3 6 4 6 4 4 4 2 3 10 10 8 8 9 8 8 9 11 11 10 10 10 9 9 9 10 11 11 12 12 12 11 11 11 11 11 12 12 12 14 14 14 15 15 14 13 12 11 11 11 12 11 11 12 10 9 8 9 9 8 8 10 9 8 9 9
0 1 3 1 3 2 3 2 2 3 1 5 9 7 7 8 7 8 2 2 2 5 6 5 3 4 3 5 5 11 10 10 10 11 9 9 9 10 10 10 9 8 9 9 9 10 10 11 12 12 11 11 12 13 14 13 12 13 13 13 14 14 14 15 14 13 13 12 11 12 11 11 9 10 11 11 10 8 9 10 9 10 9 10 7 8
3 2 5 4 4 6 5 5 3 3 4 3 2 4 1 2 5 4 5 3 2 3 4 2 4 2 4 3 8 10 10 10 10 10 10 9 9 10 10 9 9 9 9 9 10 10 10 10 10 10 11 12 12 12 13 12 13 12 13 13 13 14 15 14 14 13 12 12 13 13 11 10 9 9 10 12 11 10 8 9 9 8 8 9 9 10
2 2 8 5 2 1 3 0 2 3 0 6 8 4 0 3 2 3 2 8 5 5 4 2 2 3 2 5 9 11 11 10 8 9 9 8 9 10 10 9 9 9 9 10 9 9 10 10 10 10 12 12 12 12 13 12 12 12 12 13 13 14 16 15 14 14 13 13 14 13 12 12 11 11 10 9 9 12 11 7 7 8 8 9 9 9
1 2 2 6 4 4 5 4 2 3 4 5 3 3 4 1 4 4 7 2 4 4 1 7 5 4 5 7 8 10 11 10 9 9 7 9 9 9 9 8 8 8 9 10 10 11 11 11 12 12 11 12 12 12 12 12 12 12 12 13 14 14 14 14 14 14 14 14 14 13 13 14 12 12 12 11 10 12 11 10 8 7 9 9 10 9
5 2 1 5 6 7 5 5 6 3 2 2 3 4 6 3 7 4 4 3 3 4 2 2 5 4 9 9 10 9 10 10 10 9 9 7 10 9 8 8 8 8 8 9 10 10 11 10 10 11 12 11 12 11 11 11 11 11 11 12 13 13 13 14 13 14 14 14 14 13 14 14 14 13 13 12 11 11 11 10 9 7 7 9 10 9
5 5 6 2 2 4 2 3 4 1 3 4 2 7 5 3 3 1 4 3 4 6 4 2 8 14 12 11 10 9 8 9 9 8 7 8 10 9 8 7 7 7 8 9 9 8 9 10 12 11 11 11 11 11 11 11 12 12 11 12 12 13 13 13 13 14 14 15 15 14 15 15 15 14 14 12 11 11 10 10 9 9 8 8 9 10
5 6 8 12 14 8 5 6 5 4 8 5 4 5 6 5 3 2 3 3 9 10 2 3 15 16 13 11 10 10 10 9 8 7 9 8 8 8 7 7 7 8 8 8 9 10 11 10 10 11 11 11 11 11 11 11 11 11 11 12 12 11 11 12 13 14 14 15 15 15 16 15 16 14 14 13 13 11 11 11 10 9 9 8 10 11
5 4 4 12 12 11 9 10 11 14 13 12 12 10 10 8 6 6 3 3 2 1 3 13 16 14 11 10 10 10 9 9 9 9 10 9 8 7 7 8 7 8 9 10 10 10 10 11 10 11 11 10 11 11 11 11 11 11 11 11 11 12 12 11 13 14 14 15 15 15 15 15 14 14 15 15 13 13 12 12 11 10 9 9 9 8
7 7 6 13 15 13 11 10 9 16 12 14 14 13 12 13 12 11 10 5 4 5 12 19 16 13 8 9 10 10 10 10 9 8 8 9 8 7 8 8 9 8 9 10 10 10 10 10 10 10 10 10 11 11 11 10 10 10 11 11 11 12 12 11 11 13 15 15 15 15 16 15 15 15 15 15 15 14 13 11 11 10 9 9 9 9
4 3 7 2 8 10 10 10 11 12 15 17 13 12 11 12 13 13 13 14 17 16 16 18 16 11 6 10 11 10 10 9 9 10 10 8 7 7 8 8 8 8 8 9 9 10 9 10 10 10 10 10 10 11 10 9 9 9 10 10 11 11 11 11 12 12 13 15 15 15 15 15 15 15 15 15 14 14 14 14 11 10 9 8 9 10
5 7 4 2 6 5 5 11 12 15 17 17 14 13 10 7 7 6 5 3 3 11 13 15 11 7 7 10 11 10 10 10 11 10 9 7 7 7 8 8 8 8 9 9 9 8 9 9 9 10 10 9 10 10 9 9 9 9 10 10 11 10 10 10 11 12 12 13 15 15 15 15 16 15 15 15 15 15 14 12 12 12 10 8 9 9
3 11 6 4 8 3 6 2 4 0 6 5 7 6 8 8 8 9 9 10 9 15 13 8 5 7 10 10 11 10 10 11 11 10 9 9 8 8 8 7 7 7 8 8 8 8 8 7 8 8 8 8 8 9 10 9 9 9 10 10 10 9 10 10 11 11 12 12 15 16 15 16 16 16 16 16 16 15 13 12 12 13 13 11 8 7
4 10 5 0 4 7 8 2 2 2 4 2 2 5 3 2 5 8 5 6 6 3 3 5 12 13 11 10 11 11 10 10 10 8 7 6 6 6 7 6 6 7 7 7 6 7 6 6 6 7 8 8 9 9 8 8 8 8 8 8 9 10 10 9 10 10 11 12 14 15 16 16 16 16 17 17 17 16 15 13 12 11 10 11 13 7
9 5 4 2 6 8 5 3 3 3 1 2 4 2 6 9 13 14 11 10 8 10 15 16 14 13 10 10 11 12 12 12 10 9 8 6 5 5 6 6 6 6 7 6 7 7 6 6 7 7 8 8 9 8 8 9 9 8 9 10 10 9 10 10 9 10 11 12 13 15 16 17 17 17 16 17 17 17 16 15 14 14 11 11 12 13
4 7 4 4 4 6 3 3 5 2 1 3 4 7 7 8 7 12 11 9 7 8 13 14 13 12 13 13 12 12 12 12 11 10 9 8 7 6 6 5 5 6 6 5 5 5 6 6 6 7 7 7 8 8 9 9 8 8 9 9 10 10 10 10 10 10 10 12 12 14 16 16 17 17 17 17 16 17 17 16 16 14 13 10 10 11
12 5 4 6 4 6 4 6 6 4 3 4 5 5 4 4 2 0 5 3 4 5 9 13 13 14 13 13 13 11 10 9 10 8 7 6 5 5 4 4 4 4 4 4 4 5 6 7 7 7 7 7 8 9 9 8 8 8 9 10 9 10 10 11 11 11 11 11 12 12 14 16 17 17 17 17 17 17 17 17 16 14 11 11 12 14
4 5 3 5 1 1 7 6 4 1 4 6 2 3 2 2 2 2 5 3 3 5 8 12 13 12 14 13 12 12 9 8 8 6 4 4 4 4 3 4 3 4 5 5 7 8 8 8 7 7 7 9 10 10 8 8 8 9 10 10 10 10 11 11 12 12 11 11 12 12 12 15 16 17 17 17 17 17 16 15 15 15 13 13 11 12
11 10 4 5 6 4 4 6 5 5 2 3 9 5 3 2 2 2 2 3 4 8 9 11 14 13 13 13 11 7 3 3 5 6 4 4 3 3 4 4 5 4 5 6 6 7 8 7 7 8 9 9 10 10 11 10 10 10 11 11 11 11 11 12 12 12 11 11 11 11 10 12 15 15 15 16 16 16 16 15 14 13 13 13 11 10
9 3 3 7 5 1 5 3 4 1 2 4 6 3 2 1 2 1 3 4 9 10 10 11 13 13 11 10 8 4 1 4 7 7 5 3 2 2 3 5 6 6 7 7 7 6 6 7 9 9 10 10 10 10 11 11 11 11 11 11 10 11 11 11 11 10 9 9 10 9 10 9 12 14 14 15 13 13 14 14 14 14 14 14 11 10
4 4 4 4 4 5 5 3 3 2 1 1 2 1 1 2 1 3 2 2 11 11 10 10 12 11 11 9 4 2 1 3 8 9 5 3 4 5 4 3 3 5 6 7 7 8 7 7 6 8 9 8 9 9 9 10 10 11 11 10 11 11 10 9 9 9 9 9 9 10 10 10 9 11 12 13 13 12 12 12 13 15 15 14 14 13
3 3 1 1 4 3 2 3 3 1 2 2 2 0 0 3 4 2 2 5 14 12 10 10 12 11 10 6 4 6 8 11 11 8 6 5 6 5 5 5 7 8 8 7 7 8 7 6 7 8 9 9 9 9 9 9 11 11 10 11 12 11 9 8 8 8 9 10 10 10 10 10 10 9 9 11 13 14 13 12 11 11 12 13 15 16
1 1 2 2 3 2 1 4 1 2 3 2 2 3 1 1 1 5 10 10 10 12 12 10 10 11 9 9 9 10 11 11 10 8 7 6 5 5 4 5 5 6 7 8 9 8 6 5 6 7 8 7 7 7 8 9 11 10 10 12 11 9 9 8 8 8 9 9 10 9 10 9 10 8 8 9 10 13 14 14 12 12 11 12 12 14
1 3 2 2 3 2 2 3 1 2 3 2 3 4 3 1 3 9 11 10 9 10 10 10 8 8 9 12 12 11 11 11 8 7 6 4 4 4 4 5 6 7 7 7 5 7 7 5 7 7 7 6 6 6 7 7 9 10 10 11 9 8 8 8 7 7 8 8 9 9 9 9 9 8 8 11 11 11 13 14 13 13 11 11 11 11
3 1 1 3 3 0 1 2 1 2 3 3 2 2 4 6 5 5 7 11 12 10 9 11 11 9 10 12 12 12 11 10 9 7 7 5 4 4 4 4 5 6 6 6 7 7 5 5 6 7 8 7 7 6 6 6 7 9 10 9 7 8 8 8 8 7 8 8 8 8 8 8 8 8 8 9 10 10 11 12 12 11 12 12 12 12
5 7 7 8 6 8 9 6 5 5 7 7 7 6 7 7 7 7 11 11 8 9 7 10 11 11 10 10 12 10 10 9 7 6 6 5 4 3 3 5 7 6 5 6 8 8 6 6 7 9 8 9 8 6 5 5 6 8 7 7 7 7 7 7 8 8 8 8 7 7 7 8 8 9 9 8 8 9 9 9 10 10 10 11 11 10
2 1 1 7 9 3 4 3 6 6 7 8 9 8 7 6 6 7 8 10 10 9 9 9 11 12 12 10 10 10 10 8 8 6 5 4 4 3 4 5 5 5 6 7 6 6 6 7 7 8 9 9 7 6 6 6 7 6 6 7 7 7 7 7 7 7 7 8 7 7 7 7 7 6 8 9 8 7 8 9 9 9 9 9 10 10
4 4 8 7 6 3 6 6 7 8 7 7 6 8 8 8 8 8 9 11 12 11 12 12 12 11 10 10 10 10 9 8 8 6 4 3 3 3 4 5 5 6 6 4 5 5 5 7 7 8 8 8 7 5 6 7 8 8 7 7 7 7 7 8 7 7 8 8 6 5 6 6 7 7 6 7 8 9 8 8 9 9 10 10 9 8
5 5 5 6 6 8 10 9 9 10 8 6 6 6 7 9 11 12 13 14 15 15 14 11 9 9 9 10 10 9 9 7 6 5 4 2 2 3 4 3 3 3 4 6 6 5 5 5 6 6 7 7 5 5 6 7 7 7 7 6 6 7 7 7 8 8 8 7 6 5 5 5 5 6 6 6 6 7 8 8 8 8 7 9 8 7
7 5 10 11 11 6 7 10 14 9 7 5 7 9 10 11 13 15 14 15 14 12 11 12 9 7 8 8 9 8 9 5 4 3 4 3 3 2 2 3 3 4 5 3 2 3 3 4 4 5 6 6 6 6 6 6 6 7 7 7 6 6 6 7 7 8 8 7 7 6 5 5 5 5 5 6 6 5 5 7 10 9 8 8 12 13
1 8 10 7 7 8 8 15 4 6 12 10 11 10 11 11 14 16 15 14 11 9 9 11 12 10 8 5 3 8 7 6 5 3 4 3 2 2 1 2 3 5 4 4 5 5 5 5 5 5 7 7 6 6 6 6 6 7 7 7 6 5 6 6 7 7 7 6 6 6 5 4 5 5 5 5 5 6 6 4 7 10 11 10 11 13
Wind_Direction
178 169 186 189 172 167 153 169 173 145 152 99 82 119 132 141 141 290 277 136 106 83 46 86 80 59 43 32 31 39 51 47 38 35 38 38 31 26 240 237 260 277 310 35 29 17 2 13 22 27 42 57 74 90 101 107 112 112 105 106 76 351 148 161 159 170 188 204 200 222 233 241 238 226 219 227 245 243 248 241 235 217 206 195 203 213
186 181 196 163 179 177 177 144 95 96 125 135 126 128 134 183 161 126 99 30 25 157 129 96 78 61 50 43 40 46 52 46 40 42 44 45 43 35 26 15 1 342 57 34 38 26 26 30 42 57 72 92 105 134 135 125 122 132 143 154 173 173 171 170 172 171 184 186 176 183 197 203 137 148 229 245 234 255 251 244 231 228 221 219 214 212
185 197 162 198 115 88 93 121 132 138 130 103 155 136 140 173 300 335 238 27 38 110 135 129 83 66 58 52 53 53 58 56 56 57 55 54 51 45 37 31 28 28 26 32 33 36 36 41 53 68 67 74 58 39 73 86 94 122 211 249 136 152 156 164 173 183 196 195 193 193 200 198 142 151 210 206 211 231 227 226 227 232 225 223 223 221
175 194 196 126 146 114 77 120 121 89 79 134 126 174 192 93 183 158 99 24 24 198 149 137 93 76 65 61 60 58 59 62 60 61 59 58 56 52 50 49 44 39 35 38 38 40 42 50 53 61 79 94 147 138 116 122 127 183 279 261 178 173 178 181 193 200 200 178 159 175 179 176 167 186 201 190 185 217 219 214 217 230 235 228 224 220
156 149 142 146 169 149 131 145 135 153 160 331 173 174 162 172 219 158 125 73 41 51 137 125 98 82 31 41 55 60 62 62 62 62 60 56 56 53 52 48 45 43 37 37 34 33 43 53 52 51 58 64 50 37 34 147 184 199 220 259 249 206 195 205 201 200 197 181 167 137 143 155 175 202 219 206 214 224 219 208 207 224 232 235 236 206
158 125 122 145 156 134 133 148 172 157 169 170 252 200 185 202 172 161 107 155 142 144 231 289 131 46 28 49 49 55 60 59 60 64 57 54 49 48 48 45 40 41 40 39 35 30 30 36 42 42 34 35 35 28 11 281 229 232 250 245 264 291 276 248 224 210 188 185 183 184 190 188 186 210 225 223 224 233 231 223 213 224 231 234 235 224
152 127 174 163 161 152 153 163 189 182 171 173 198 199 185 168 156 141 168 152 176 175 175 20 242 119 50 48 40 43 66 65 62 61 59 53 49 47 47 45 42 36 31 32 32 29 30 28 34 32 28 24 23 11 353 344 349 348 333 328 324 330 324 296 266 219 189 178 175 185 202 210 211 226 238 235 227 228 235 234 229 227 224 226 212 170
126 145 109 131 146 163 155 191 182 180 148 191 193 172 152 153 189 199 163 235 135 33 109 107 286 140 149 52 5 12 74 68 64 60 56 55 53 48 47 44 41 37 34 31 28 26 24 24 23 21 21 21 20 12 8 3 5 4 2 0 6 12 351 320 298 272 231 205 189 196 211 207 219 230 246 246 243 240 239 227 225 230 227 213 212 202
156 172 168 154 162 174 196 178 155 189 161 183 175 166 170 181 198 157 203 203 87 227 178 134 235 123 97 38 352 338 92 69 64 64 58 51 47 47 47 44 40 37 34 32 29 23 21 18 17 15 15 14 21 16 10 3 358 357 357 360 2 9 16 20 342 279 224 214 204 194 187 204 217 228 238 231 234 241 241 241 231 230 221 208 213 214
248 186 181 162 164 186 188 185 165 171 174 241 121 78 68 63 65 171 183 204 179 209 208 163 302 133 100 44 164 78 97 79 70 64 64 56 48 43 41 42 42 37 30 28 27 22 20 14 12 4 6 15 12 10 14 13 4 359 356 358 358 0 3 6 15 345 263 211 199 205 202 211 225 231 242 238 238 235 238 243 241 235 225 212 216 217
93 341 192 156 188 181 175 135 171 177 113 118 127 121 102 65 85 78 60 80 161 247 189 351 302 260 129 175 182 156 116 103 87 68 66 54 46 40 41 40 35 31 28 23 19 20 17 12 9 7 15 12 12 9 12 11 7 5 3 357 356 355 357 3 5 357 139 218 226 225 219 224 241 238 237 241 240 242 234 243 251 245 238 221 217 210
71 102 156 227 137 71 112 103 60 41 133 141 145 141 126 88 123 114 98 193 213 218 73 343 344 277 177 169 183 139 81 74 80 71 61 55 43 37 36 38 37 33 28 22 21 19 14 11 12 11 10 6 3 6 8 4 2 5 2 360 359 2 0 358 350 342 303 294 298 285 276 263 262 259 254 249 248 245 241 245 253 256 255 243 227 219
208 183 209 266 229 145 135 111 101 140 177 191 141 155 170 160 152 178 165 191 210 204 66 294 311 87 62 124 153 131 108 97 77 64 75 73 61 48 43 41 37 34 29 25 22 20 16 14 17 16 11 8 5 3 1 1 1 359 358 358 358 359 359 359 345 348 341 319 307 298 278 278 278 277 268 264 260 253 245 248 253 252 250 243 235 225
222 288 233 227 101 226 151 149 142 162 199 164 174 168 171 166 170 178 170 30 24 48 7 323 299 71 108 124 138 121 107 97 88 81 80 82 73 62 55 49 44 41 35 28 23 19 13 9 8 10 9 5 360 359 359 357 358 357 356 357 356 355 354 355 355 348 342 322 313 306 301 292 289 288 285 281 276 268 256 246 244 244 247 245 236 231
173 198 229 152 201 168 175 159 166 151 163 187 101 184 200 131 166 163 171 175 183 135 73 0 231 135 164 130 124 119 106 91 84 80 81 81 76 71 64 57 52 48 42 34 28 22 18 13 10 6 5 3 358 355 355 355 353 355 356 354 352 351 351 351 352 349 346 333 318 318 317 300 295 290 287 286 283 280 270 255 250 245 245 242 239 233
199 230 284 174 342 151 180 169 134 134 153 188 149 35 147 194 127 140 78 127 144 136 139 27 44 43 69 82 115 111 103 90 83 79 78 72 69 64 55 48 44 44 39 31 25 17 14 14 15 11 5 3 3 360 356 356 354 353 349 347 350 351 348 350 350 348 344 338 334 326 307 299 293 280 274 278 269 262 258 261 254 255 251 252 253 243
106 186 32 78 48 191 169 136 172 161 173 177 160 199 169 55 106 99 99 38 52 69 62 8 116 108 127 111 104 110 105 103 95 86 78 74 70 62 55 47 45 43 36 31 25 19 13 7 13 15 11 8 5 2 0 357 353 349 346 345 345 345 345 347 347 342 342 339 334 329 320 306 297 293 288 275 266 259 249 242 245 247 247 226 246 246
164 134 341 151 165 349 350 186 97 21 118 114 194 168 98 82 29 131 155 73 32 181 97 195 148 154 167 142 145 127 115 109 95 81 78 71 61 58 53 49 45 38 34 28 25 18 12 9 7 10 11 10 7 2 0 359 357 358 353 348 344 344 343 341 341 337 336 334 328 326 325 317 305 297 282 269 269 263 252 248 245 244 235 219 215 226
210 138 74 356 115 98 70 138 94 73 330 174 162 154 175 149 187 20 108 163 151 120 140 172 173 176 193 126 157 151 128 114 85 72 65 56 53 53 49 46 41 36 30 24 19 16 12 10 7 6 4 4 3 4 5 2 360 1 1 359 357 352 347 334 329 325 322 327 322 321 323 318 309 287 274 268 268 266 260 256 244 239 234 227 215 210
1 143 312 345 145 114 64 199 167 148 74 66 114 122 3 227 142 159 207 122 135 134 138 149 169 199 199 134 198 150 134 123 104 74 63 63 58 54 48 41 36 32 26 19 16 13 11 9 8 7 3 3 0 359 356 359 6 6 5 1 356 351 349 345 344 340 336 335 329 323 317 322 319 308 285 272 269 259 255 253 252 242 235 227 217 202
140 293 127 108 310 220 153 326 176 156 148 116 152 139 103 48 324 61 56 30 162 154 178 140 183 216 143 358 257 143 130 121 109 96 84 72 67 63 55 45 38 35 25 21 18 15 13 9 6 7 6 3 0 360 359 360 358 2 4 6 5 360 356 353 352 348 348 343 338 327 328 323 323 318 304 286 264 256 250 243 238 242 238 231 223 208
119 8 130 129 105 59 35 335 316 263 344 148 160 168 145 135 134 169 161 107 69 145 155 158 183 125 44 341 130 123 121 121 111 108 99 83 73 68 58 48 42 33 29 26 22 20 15 12 7 6 7 5 4 1 1 358 357 358 358 359 5 5 2 355 353 351 347 347 341 337 326 323 328 335 328 306 287 261 255 249 244 239 237 236 230 211
152 112 91 88 81 97 108 92 36 94 130 82 352 122 141 13 141 165 180 160 100 40 110 77 110 151 26 23 109 113 116 113 113 111 103 93 82 73 61 51 44 37 29 22 21 17 15 13 10 8 8 9 7 4 0 360 1 357 353 355 0 3 3 0 357 349 348 350 348 342 335 328 331 332 336 332 315 297 276 263 261 249 236 230 230 224
143 87 95 91 115 209 229 153 63 30 232 89 51 40 244 157 163 173 171 151 136 139 148 153 144 135 90 80 98 106 108 109 108 103 105 97 88 73 64 52 42 34 23 20 19 18 16 14 12 11 11 10 9 6 3 0 359 357 356 359 359 360 358 358 358 356 351 351 351 349 344 341 335 333 333 331 328 318 305 288 266 262 244 237 237 230
160 288 133 119 110 84 106 139 104 105 70 56 69 17 358 83 79 99 96 77 116 185 162 165 174 174 145 118 104 106 105 98 92 90 98 102 88 75 69 58 50 39 29 22 20 19 18 19 17 16 12 11 8 7 4 1 359 356 355 3 2 1 1 359 358 358 357 354 347 347 350 346 343 339 334 328 322 322 318 306 289 264 248 238 236 233
71 62 333 144 147 149 150 164 151 146 85 97 55 20 18 33 114 159 125 175 173 149 174 190 109 106 126 128 116 109 106 98 91 88 82 83 85 78 72 63 53 46 35 26 23 21 20 18 19 18 15 13 10 6 2 0 359 356 356 2 5 1 0 1 359 0 359 357 352 346 345 345 347 345 339 332 323 315 316 311 299 280 254 244 238 232
103 72 36 9 135 135 87 61 2 29 106 86 26 30 2 354 330 8 74 142 192 147 174 39 148 141 147 140 131 124 114 108 103 95 94 82 81 80 75 67 59 51 40 31 24 22 22 23 21 18 17 14 11 6 2 359 357 358 358 358 3 7 5 0 1 2 2 359 358 352 351 345 341 340 340 335 324 317 313 315 307 290 266 249 239 233
97 79 34 67 58 59 67 67 56 68 100 65 58 18 21 17 330 72 154 164 116 124 173 127 151 143 152 140 132 122 110 103 100 104 89 82 82 84 81 75 66 60 50 42 34 26 24 21 17 16 13 12 10 5 3 360 358 355 356 357 357 354 1 6 4 6 3 1 357 356 353 350 343 337 337 335 331 324 322 317 310 292 266 250 239 233
87 97 89 81 64 67 66 82 83 79 75 81 68 51 40 26 44 82 66 38 319 217 179 145 151 138 136 134 126 118 118 109 102 89 90 93 90 87 83 77 67 57 50 44 35 28 23 21 15 12 10 9 6 6 3 1 358 357 358 0 357 356 354 357 8 10 8 3 359 354 350 349 346 344 341 339 335 333 330 325 313 299 275 251 237 231
103 62 103 100 83 61 63 80 90 96 92 68 58 57 55 58 63 77 85 63 70 88 115 137 131 115 115 116 107 107 107 104 98 98 93 85 85 84 83 76 64 55 48 42 34 29 24 21 15 11 8 7 7 3 2 359 358 358 360 358 358 357 354 353 357 6 11 9 2 356 354 351 350 347 345 343 342 339 334 327 320 307 286 259 243 235
111 149 172 107 75 58 67 85 87 88 89 80 66 62 63 70 74 75 85 83 86 94 111 115 109 101 78 101 103 104 101 104 97 86 82 82 85 84 78 70 62 55 48 41 36 29 26 23 18 12 9 6 4 2 358 353 352 355 359 358 359 358 353 356 357 357 6 11 7 1 357 356 352 350 350 348 345 344 342 337 326 310 296 268 246 238
66 135 173 157 99 75 86 98 101 97 87 79 57 46 45 47 62 38 57 12 116 130 121 116 117 124 127 112 105 101 102 97 95 92 91 86 80 77 74 67 60 54 49 41 34 31 25 23 20 14 6 1 3 3 0 350 352 1 2 359 358 354 353 360 360 358 356 4 8 5 2 359 356 354 354 352 352 349 343 341 343 339 317 281 250 239
98 140 153 148 91 114 145 120 93 9 119 65 31 23 43 75 96 85 60 66 106 135 130 148 135 124 132 131 115 105 101 98 93 94 98 90 81 77 71 66 61 53 51 41 36 30 22 16 16 12 1 2 3 1 358 351 354 1 359 359 356 352 357 1 3 357 358 360 9 8 5 3 1 359 360 359 357 355 348 349 358 358 349 324 271 238
97 127 114 2 108 149 177 229 273 172 164 90 21 330 303 54 99 81 52 53 34 69 100 93 125 132 131 127 119 117 106 98 101 92 90 93 96 84 77 69 63 59 51 42 35 26 14 7 10 9 3 2 3 3 350 357 355 350 357 358 358 359 358 359 2 2 1 3 9 8 8 8 7 6 5 4 5 4 0 358 1 1 354 357 350 298
121 91 86 37 108 143 168 245 142 175 87 352 329 36 94 106 96 87 71 57 79 107 109 104 116 123 120 112 114 112 108 105 96 94 83 70 70 72 71 62 54 56 51 38 29 18 12 7 5 3 3 7 3 357 355 2 357 351 4 4 3 1 1 1 2 6 4 6 9 14 12 12 11 12 11 10 9 10 11 9 7 9 14 14 15 16
124 105 121 63 93 117 157 173 186 138 31 90 110 108 112 106 99 93 64 55 62 105 117 115 117 114 113 114 115 117 113 105 89 72 73 69 66 71 64 55 52 54 53 34 17 11 5 4 4 3 360 360 4 3 5 358 347 357 6 7 7 3 4 2 4 7 5 7 7 12 15 14 16 16 17 17 16 16 16 16 14 13 15 27 25 20
114 99 100 99 325 148 113 70 81 125 147 118 119 152 161 131 169 99 117 53 76 107 121 120 120 120 121 125 126 125 123 106 83 63 53 56 57 61 75 69 53 53 47 34 24 22 16 15 13 6 355 2 7 8 2 349 352 1 7 10 7 4 7 6 9 8 7 7 6 4 12 16 17 20 21 22 23 24 23 20 19 18 13 30 37 33
331 118 208 117 48 127 123 106 111 142 212 204 191 145 97 65 82 123 99 92 105 113 130 126 124 129 131 134 137 144 149 111 88 90 71 68 49 57 50 51 41 39 37 30 28 27 20 14 9 10 7 8 12 6 352 356 1 5 12 11 7 7 10 11 12 9 7 7 3 4 8 18 18 20 21 24 26 27 28 28 27 25 24 33 31 40
51 61 76 106 132 128 126 136 168 178 205 107 167 148 106 111 179 196 129 147 162 149 151 140 135 142 143 146 152 159 186 123 118 128 113 86 61 45 57 47 46 43 41 38 30 18 11 7 5 10 15 13 13 2 2 2 10 16 16 14 10 8 11 14 12 9 6 1 2 3 7 17 22 21 21 22 24 27 30 31 29 31 30 28 34 39
47 18 69 91 113 124 130 112 162 225 133 166 152 106 103 79 121 230 192 175 163 165 156 150 145 148 147 147 149 163 231 132 153 149 141 122 92 43 36 32 25 23 31 25 25 8 359 0 5 11 11 13 9 6 7 7 14 17 17 15 13 13 12 10 7 3 5 4 4 4 8 11 16 21 23 24 18 21 30 33 35 32 36 38 35 33
9 38 16 112 120 108 100 87 83 138 328 144 116 95 138 180 218 201 134 103 156 159 153 147 141 146 145 145 157 107 350 50 111 134 140 151 113 77 53 38 28 24 24 14 8 0 0 352 360 16 16 7 6 11 9 7 15 17 16 13 16 14 7 2 3 7 9 9 8 9 9 9 9 7 13 20 20 23 26 26 34 38 39 40 40 38
63 86 77 99 85 105 105 101 97 70 112 133 107 284 275 174 161 168 53 146 150 150 147 146 140 144 142 126 106 109 113 113 120 128 123 93 71 50 36 23 21 16 10 5 11 12 353 348 0 15 18 14 11 13 11 10 20 17 14 17 17 7 358 0 3 9 15 15 13 10 9 9 5 6 8 14 24 26 31 30 29 32 35 40 42 41
75 86 107 106 127 86 22 99 133 159 150 106 127 81 343 220 56 112 122 133 147 142 143 141 134 142 130 113 116 120 121 126 127 116 94 88 75 54 27 19 14 6 0 358 354 1 353 342 3 16 20 13 14 15 14 12 22 19 15 19 10 2 1 360 4 16 20 17 14 12 11 10 11 11 12 7 12 23 30 33 31 30 33 31 30 37
336 98 139 213 251 121 162 170 166 44 107 114 209 163 153 319 120 143 133 131 144 142 137 134 122 123 124 129 132 132 132 126 108 102 100 96 91 75 45 28 14 9 5 9 11 0 348 358 15 21 23 20 18 16 17 12 22 20 17 15 359 0 3 3 7 14 21 19 16 14 15 13 12 12 10 17 13 21 27 29 32 37 37 34 34 32
338 237 256 137 167 259 82 93 126 175 89 85 100 86 101 116 118 119 126 138 142 145 136 136 136 126 131 135 136 136 129 127 126 130 125 109 88 57 34 15 15 12 9 8 13 7 12 17 13 24 31 28 19 18 17 15 16 20 18 5 359 4 4 4 9 13 16 20 20 17 15 18 20 14 16 20 19 18 19 22 25 31 33 39 41 42
86 103 98 87 100 104 72 75 107 94 99 88 83 99 109 108 113 121 131 129 139 140 137 138 136 132 132 134 131 128 125 132 128 119 115 104 85 53 21 25 26 23 23 26 24 11 6 16 28 28 27 29 21 13 11 11 17 19 6 355 0 360 3 10 12 15 13 15 18 16 16 22 20 23 20 17 21 24 18 12 15 21 23 29 35 38
118 335 10 111 150 141 67 73 94 98 99 104 101 95 91 101 113 125 127 125 127 123 102 114 124 129 131 125 125 131 133 134 121 116 107 99 71 37 32 26 32 38 30 29 13 358 21 24 28 24 24 30 16 8 4 9 20 16 0 360 357 356 1 12 12 16 14 9 11 18 20 23 17 16 21 20 21 25 25 25 18 18 15 12 15 28
115 139 97 109 105 98 133 123 104 94 96 107 116 118 113 113 112 113 117 120 122 117 116 118 118 119 128 125 129 132 131 129 126 125 114 85 59 42 34 33 27 35 36 29 23 9 29 28 29 23 25 27 11 3 6 15 17 11 6 2 1 350 358 12 10 18 20 10 10 19 15 22 8 7 27 25 25 22 21 22 25 30 26 17 5 359
133 163 127 150 101 95 101 113 116 100 83 92 111 112 120 126 120 116 116 119 123 121 120 112 109 122 122 123 127 127 125 120 114 116 107 92 71 44 35 24 33 32 22 33 26 19 27 11 21 20 25 25 11 8 17 20 16 8 4 358 1 356 1 8 6 19 22 11 11 14 13 24 23 20 17 25 32 45 34 19 15 16 32 36 22 13
140 118 129 123 122 158 170 165 155 135 152 142 130 131 127 126 125 121 121 120 123 118 116 112 101 99 111 123 128 127 124 123 116 126 112 84 52 22 20 37 54 60 56 36 18 22 22 21 10 10 20 19 5 7 16 18 18 14 10 1 4 4 4 357 11 18 21 17 12 4 6 17 25 23 24 20 21 34 70 80 54 38 32 28 23 29
160 161 164 157 157 184 168 164 161 67 114 134 136 133 131 132 130 126 124 123 112 102 114 120 123 120 117 113 110 124 129 135 138 143 107 96 60 39 9 25 52 62 53 20 29 30 19 18 12 10 16 8 354 2 4 8 13 13 8 2 5 4 7 2 13 23 21 16 16 3 347 8 19 23 22 22 18 20 20 45 93 84 65 60 47 39